TIANMU-1 16

Last updated on Thu Oct 30 2025 00:02:23 GMT+0000 (Coordinated Universal Time)

1 58701U 24004B 25302.52018106 .00009134 00000+0 38099-3 0 9994 2 58701 97.4596 123.6030 0008143 91.1092 269.1078 15.23877953100617
UTC large
Height (km)
Speed (km/s)
/
Latitude / Longitude
Inclination (degrees)
Orbital Period (minutes)
Azimuth
Elevation
Range (km)
Doppler Factor

Next 0 passes for location: London (51.5072 / 0.1276)

Sorry there are no passes over London.